When you browse on this site, cookies collect data to enhance your experience and personalize the content and advertising you see.
Visit our Privacy Policy to learn more. By continuing to use the site, you agree to this use of cookies and data.
  • In Austria
  • List of Countries
  • For 7 days
  • Water Temperature
  • Satellite Maps
  • Weather Map
  • News
  • Weather Widgets
  • user-avatar
    Login

    Hourly Weather Giumri

    Today, 21 April, Sunday

    Time Temperature Precipitation Wind Pressure Humidity
    00:00 -1°C° 0 mm 2 mps 630 mmHg 82%
    01:00 -1°C° 0.1 mm 2 mps 630 mmHg 82%
    02:00 -1°C° 0.1 mm 2 mps 629 mmHg 82%
    03:00 -1°C° 0 mm 2 mps 629 mmHg 81%
    04:00 +1°C° 0.1 mm 2 mps 629 mmHg 81%
    05:00 +1°C° 0.1 mm 2 mps 629 mmHg 80%
    06:00 +1°C° 0.1 mm 2 mps 629 mmHg 80%
    07:00 +2°C° 0.1 mm 2 mps 630 mmHg 74%
    08:00 +2°C° 0.1 mm 3 mps 630 mmHg 68%
    09:00 +3°C° 0.1 mm 3 mps 630 mmHg 62%
    10:00 +4°C° 0.1 mm 3 mps 630 mmHg 61%
    11:00 +5°C° 0.1 mm 3 mps 630 mmHg 59%
    12:00 +5°C° 0.1 mm 3 mps 630 mmHg 58%
    13:00 +7°C° 0.1 mm 3 mps 630 mmHg 58%
    14:00 +7°C° 0.1 mm 3 mps 630 mmHg 58%
    15:00 +6°C° 0.1 mm 4 mps 629 mmHg 58%
    16:00 +5°C° 0 mm 4 mps 629 mmHg 62%
    17:00 +4°C° 0 mm 4 mps 629 mmHg 66%
    18:00 +3°C° 0 mm 4 mps 629 mmHg 69%
    19:00 +1°C° 0 mm 4 mps 629 mmHg 72%
    20:00 0°C° 0 mm 4 mps 629 mmHg 75%
    21:00 -1°C° 0 mm 4 mps 630 mmHg 79%
    22:00 -1°C° 0.1 mm 4 mps 630 mmHg 79%
    23:00 -1°C° 0.1 mm 4 mps 630 mmHg 79%

    Tomorrow, 22 April, Monday

    Time Temperature Precipitation Wind Pressure Humidity
    00:00 -2°C° 0.1 mm 4 mps 630 mmHg 80%
    01:00 -2°C° 0.1 mm 4 mps 630 mmHg 80%
    02:00 -1°C° 0.1 mm 3 mps 630 mmHg 79%
    03:00 -1°C° 0.1 mm 3 mps 630 mmHg 79%
    04:00 -1°C° 0 mm 3 mps 630 mmHg 79%
    05:00 -1°C° 0 mm 3 mps 630 mmHg 78%
    06:00 -1°C° 0 mm 3 mps 630 mmHg 77%
    07:00 -1°C° 0 mm 4 mps 630 mmHg 72%
    08:00 0°C° 0 mm 4 mps 630 mmHg 67%
    09:00 +3°C° 0 mm 4 mps 631 mmHg 62%
    10:00 +4°C° 0 mm 4 mps 631 mmHg 60%
    11:00 +3°C° 0 mm 5 mps 631 mmHg 58%
    12:00 +5°C° 0 mm 5 mps 631 mmHg 56%
    13:00 +5°C° 0 mm 5 mps 631 mmHg 56%
    14:00 +5°C° 0 mm 5 mps 630 mmHg 57%
    15:00 +5°C° 0 mm 5 mps 630 mmHg 58%
    16:00 +3°C° 0 mm 5 mps 630 mmHg 61%
    17:00 +2°C° 0 mm 5 mps 630 mmHg 64%
    18:00 +1°C° 0 mm 5 mps 630 mmHg 68%
    19:00 0°C° 0 mm 4 mps 631 mmHg 71%
    20:00 0°C° 0 mm 4 mps 631 mmHg 74%
    21:00 0°C° 0 mm 3 mps 632 mmHg 77%
    22:00 -1°C° 0 mm 3 mps 632 mmHg 76%
    23:00 -1°C° 0 mm 3 mps 632 mmHg 76%

    Day after tomorrow, 23 April, Tuesday

    Time Temperature Precipitation Wind Pressure Humidity
    00:00 -1°C° 0 mm 2 mps 633 mmHg 76%
    01:00 -1°C° 0 mm 2 mps 633 mmHg 77%
    02:00 -2°C° 0 mm 2 mps 633 mmHg 78%
    03:00 -2°C° 0 mm 2 mps 633 mmHg 79%
    04:00 -1°C° 0 mm 2 mps 634 mmHg 77%
    05:00 +1°C° 0 mm 1 mps 634 mmHg 76%
    06:00 +1°C° 0 mm 1 mps 635 mmHg 75%
    07:00 +3°C° 0.1 mm 1 mps 635 mmHg 69%
    08:00 +3°C° 0.1 mm 2 mps 636 mmHg 62%
    09:00 +5°C° 0.1 mm 2 mps 636 mmHg 56%
    10:00 +6°C° 0.1 mm 2 mps 636 mmHg 54%
    11:00 +7°C° 0.1 mm 2 mps 636 mmHg 53%
    12:00 +7°C° 0.1 mm 2 mps 637 mmHg 51%
    13:00 +8°C° 0.2 mm 2 mps 636 mmHg 52%
    14:00 +8°C° 0.2 mm 2 mps 636 mmHg 53%
    15:00 +8°C° 0.2 mm 2 mps 636 mmHg 55%
    16:00 +7°C° 0.2 mm 2 mps 636 mmHg 59%
    17:00 +7°C° 0.2 mm 2 mps 636 mmHg 63%
    18:00 +6°C° 0.2 mm 2 mps 636 mmHg 68%
    19:00 +5°C° 0.1 mm 2 mps 637 mmHg 72%
    20:00 +4°C° 0.1 mm 2 mps 637 mmHg 77%
    21:00 +3°C° 0.1 mm 2 mps 638 mmHg 81%
    22:00 +4°C° 0.1 mm 1 mps 638 mmHg 83%
    23:00 +3°C° 0.1 mm 1 mps 638 mmHg 84%

    24 April, Wednesday

    Time Temperature Precipitation Wind Pressure Humidity
    00:00 +3°C° 0.1 mm 1 mps 638 mmHg 85%
    01:00 +2°C° 0 mm 1 mps 638 mmHg 85%
    02:00 +1°C° 0 mm 2 mps 638 mmHg 85%
    03:00 -1°C° 0 mm 2 mps 638 mmHg 85%
    04:00 -1°C° 0 mm 2 mps 638 mmHg 83%
    05:00 +1°C° 0 mm 1 mps 638 mmHg 81%
    06:00 +1°C° 0 mm 1 mps 638 mmHg 79%
    07:00 +3°C° 0 mm 1 mps 638 mmHg 71%
    08:00 +5°C° 0 mm 1 mps 639 mmHg 63%
    09:00 +6°C° 0 mm 1 mps 639 mmHg 56%
    10:00 +7°C° 0 mm 1 mps 639 mmHg 52%
    11:00 +8°C° 0 mm 1 mps 639 mmHg 49%
    12:00 +9°C° 0 mm 1 mps 638 mmHg 46%
    13:00 +9°C° 0 mm 2 mps 638 mmHg 45%
    14:00 +9°C° 0 mm 2 mps 638 mmHg 44%
    15:00 +10°C° 0 mm 2 mps 638 mmHg 44%
    16:00 +9°C° 0 mm 2 mps 638 mmHg 48%
    17:00 +8°C° 0 mm 2 mps 637 mmHg 52%
    18:00 +8°C° 0 mm 2 mps 637 mmHg 56%
    19:00 +6°C° 0 mm 2 mps 637 mmHg 63%
    20:00 +5°C° 0 mm 2 mps 638 mmHg 69%
    21:00 +4°C° 0 mm 2 mps 638 mmHg 76%
    22:00 +3°C° 0 mm 2 mps 638 mmHg 78%
    23:00 +3°C° 0 mm 2 mps 638 mmHg 80%

    25 April, Thursday

    Time Temperature Precipitation Wind Pressure Humidity
    00:00 +2°C° 0 mm 2 mps 638 mmHg 82%
    01:00 +2°C° 0 mm 2 mps 638 mmHg 82%
    02:00 +1°C° 0 mm 2 mps 638 mmHg 83%
    03:00 +1°C° 0 mm 2 mps 638 mmHg 83%
    04:00 +1°C° 0 mm 2 mps 638 mmHg 80%
    05:00 +1°C° 0 mm 2 mps 638 mmHg 78%
    06:00 +2°C° 0 mm 1 mps 638 mmHg 75%
    07:00 +4°C° 0 mm 1 mps 639 mmHg 66%
    08:00 +6°C° 0 mm 1 mps 639 mmHg 58%
    09:00 +8°C° 0 mm 1 mps 639 mmHg 49%
    10:00 +9°C° 0 mm 1 mps 639 mmHg 47%
    11:00 +9°C° 0 mm 2 mps 639 mmHg 46%
    12:00 +10°C° 0 mm 2 mps 639 mmHg 44%
    13:00 +12°C° 0 mm 2 mps 639 mmHg 45%
    14:00 +11°C° 0 mm 3 mps 639 mmHg 46%
    15:00 +11°C° 0 mm 3 mps 638 mmHg 47%
    16:00 +11°C° 0.1 mm 3 mps 638 mmHg 50%
    17:00 +10°C° 0.1 mm 3 mps 638 mmHg 54%
    18:00 +9°C° 0.1 mm 3 mps 638 mmHg 58%
    19:00 +8°C° 0 mm 3 mps 638 mmHg 63%
    20:00 +6°C° 0 mm 2 mps 638 mmHg 68%
    21:00 +5°C° 0 mm 2 mps 638 mmHg 74%
    22:00 +4°C° 0 mm 2 mps 638 mmHg 76%
    23:00 +4°C° 0 mm 2 mps 638 mmHg 78%

    26 April, Friday

    Time Temperature Precipitation Wind Pressure Humidity
    00:00 +3°C° 0 mm 2 mps 638 mmHg 80%
    01:00 +3°C° 0 mm 2 mps 638 mmHg 81%
    02:00 +3°C° 0 mm 2 mps 638 mmHg 82%
    03:00 +3°C° 0 mm 1 mps 638 mmHg 84%
    04:00 +3°C° 0 mm 1 mps 638 mmHg 83%
    05:00 +4°C° 0 mm 1 mps 638 mmHg 81%
    06:00 +4°C° 0 mm 1 mps 638 mmHg 80%
    07:00 +6°C° 0 mm 1 mps 638 mmHg 72%
    08:00 +8°C° 0 mm 1 mps 638 mmHg 64%
    09:00 +9°C° 0 mm 1 mps 638 mmHg 56%
    10:00 +9°C° 0 mm 2 mps 638 mmHg 53%
    11:00 +10°C° 0 mm 2 mps 638 mmHg 50%
    12:00 +12°C° 0 mm 2 mps 638 mmHg 47%
    13:00 +13°C° 0 mm 2 mps 638 mmHg 48%
    14:00 +13°C° 0 mm 2 mps 638 mmHg 48%
    15:00 +13°C° 0 mm 2 mps 638 mmHg 48%
    16:00 +12°C° 0.1 mm 2 mps 637 mmHg 52%
    17:00 +12°C° 0.1 mm 2 mps 637 mmHg 55%
    18:00 +10°C° 0.1 mm 2 mps 637 mmHg 59%
    19:00 +8°C° 0 mm 2 mps 637 mmHg 65%
    20:00 +7°C° 0 mm 2 mps 637 mmHg 72%
    21:00 +6°C° 0 mm 1 mps 637 mmHg 78%
    22:00 +6°C° 0 mm 1 mps 637 mmHg 80%
    23:00 +5°C° 0 mm 1 mps 636 mmHg 82%
    Show more